DL1MX-13 Weather Reports


time (UTC)temp
C
wind
direction
speed
KPH
gust
KPH
rain 1hr
cm
rain 24hr
cm
rain mn
cm
humidity
%
barometer
mb
20230208171454 -3 35 6.4 0.0 0.00 0.00 0.00 63 1035.1
20230208170954 -3 40 6.4 0.0 0.00 0.00 0.00 63 1035.1
20230208170453 -2 32 6.4 0.0 0.00 0.00 0.00 61 1035.2
20230208165953 -2 45 8.0 0.0 0.00 0.00 0.00 60 1035.3
20230208165453 -2 50 6.4 0.0 0.00 0.00 0.00 59 1035.1
20230208164953 -1 32 8.0 0.0 0.00 0.00 0.00 54 1035.1
20230208164453 -1 57 6.4 0.0 0.00 0.00 0.00 52 1035.1
20230208163953 0 142 0.0 0.0 0.00 0.00 0.00 48 1035.0
20230208163453 0 127 8.0 0.0 0.00 0.00 0.00 48 1034.8
20230208162952 0 130 6.4 0.0 0.00 0.00 0.00 48 1034.8
20230208162452 0 132 4.8 0.0 0.00 0.00 0.00 47 1034.8
20230208161952 1 220 4.8 0.0 0.00 0.00 0.00 45 1034.8
20230208161452 1 200 12.9 0.0 0.00 0.00 0.00 43 1034.7
20230208160952 1 182 12.9 0.0 0.00 0.00 0.00 43 1034.7
20230208160452 1 200 8.0 0.0 0.00 0.00 0.00 41 1034.7
20230208155952 2 177 9.7 0.0 0.00 0.00 0.00 40 1034.7
20230208155452 2 165 9.7 0.0 0.00 0.00 0.00 39 1034.7
20230208154951 2 150 11.3 0.0 0.00 0.00 0.00 38 1034.7
20230208154451 2 175 9.7 0.0 0.00 0.00 0.00 38 1034.8
20230208153951 2 185 11.3 0.0 0.00 0.00 0.00 36 1034.8
20230208153451 3 170 9.7 0.0 0.00 0.00 0.00 36 1034.9
20230208152951 4 160 8.0 0.0 0.00 0.00 0.00 35 1034.9
20230208152451 4 162 6.4 0.0 0.00 0.00 0.00 36 1035.0
20230208151951 4 200 6.4 0.0 0.00 0.00 0.00 34 1034.9
20230208151450 4 145 8.0 0.0 0.00 0.00 0.00 34 1035.0
20230208150950 4 112 9.7 0.0 0.00 0.00 0.00 35 1035.0
20230208150450 5 202 4.8 0.0 0.00 0.00 0.00 34 1035.0
20230208145950 5 202 4.8 0.0 0.00 0.00 0.00 36 1035.0
20230208145450 3 165 9.7 0.0 0.00 0.00 0.00 35 1034.9
20230208144950 3 130 11.3 0.0 0.00 0.00 0.00 35 1035.0
20230208144450 3 160 14.5 0.0 0.00 0.00 0.00 35 1035.0
20230208143950 3 200 11.3 0.0 0.00 0.00 0.00 33 1035.0
20230208143449 4 150 11.3 0.0 0.00 0.00 0.00 35 1035.1
20230208142949 4 150 11.3 0.0 0.00 0.00 0.00 35 1035.2
20230208142449 4 165 11.3 0.0 0.00 0.00 0.00 39 1035.4
20230208141949 3 200 11.3 0.0 0.00 0.00 0.00 39 1035.2
20230208141449 3 260 9.7 0.0 0.00 0.00 0.00 43 1035.4
20230208140949 3 240 9.7 0.0 0.00 0.00 0.00 46 1035.3
20230208140449 3 240 9.7 0.0 0.00 0.00 0.00 46 1035.2
20230208135949 3 247 9.7 0.0 0.00 0.00 0.00 47 1035.4
20230208135448 3 235 11.3 0.0 0.00 0.00 0.00 46 1035.4
20230208134948 3 235 9.7 0.0 0.00 0.00 0.00 44 1035.6
20230208134448 3 222 11.3 0.0 0.00 0.00 0.00 45 1035.6
20230208133948 3 222 12.9 0.0 0.00 0.00 0.00 45 1035.5
20230208133448 3 230 9.7 0.0 0.00 0.00 0.00 44 1035.7
20230208132948 3 242 9.7 0.0 0.00 0.00 0.00 46 1035.8
20230208132448 3 230 9.7 0.0 0.00 0.00 0.00 46 1035.9
20230208131948 3 242 11.3 0.0 0.00 0.00 0.00 46 1036.1
20230208131447 3 247 9.7 0.0 0.00 0.00 0.00 46 1036.1
20230208130947 3 247 9.7 0.0 0.00 0.00 0.00 46 1036.1
20230208130447 3 247 9.7 0.0 0.00 0.00 0.00 45 1036.2
20230208125947 4 260 8.0 0.0 0.00 0.00 0.00 43 1036.3
20230208125447 3 252 8.0 0.0 0.00 0.00 0.00 44 1036.4
20230208124947 3 255 8.0 0.0 0.00 0.00 0.00 46 1036.4
20230208124447 3 252 8.0 0.0 0.00 0.00 0.00 47 1036.5
20230208123947 2 250 9.7 0.0 0.00 0.00 0.00 49 1036.7
20230208123446 3 260 9.7 0.0 0.00 0.00 0.00 46 1036.9
20230208122946 2 260 11.3 0.0 0.00 0.00 0.00 47 1037.0
20230208122446 2 255 11.3 0.0 0.00 0.00 0.00 49 1037.0
20230208121946 2 250 11.3 0.0 0.00 0.00 0.00 50 1037.2
20230208121446 2 250 9.7 0.0 0.00 0.00 0.00 50 1037.2
20230208120946 2 250 12.9 0.0 0.00 0.00 0.00 52 1037.3
20230208120446 2 252 12.9 0.0 0.00 0.00 0.00 51 1037.4
20230208115946 2 237 12.9 0.0 0.00 0.00 0.00 50 1037.4
20230208115445 2 257 11.3 0.0 0.00 0.00 0.00 49 1037.5
20230208114945 2 250 11.3 0.0 0.00 0.00 0.00 50 1037.5
20230208114445 2 245 11.3 0.0 0.00 0.00 0.00 49 1037.6
20230208113945 2 210 8.0 0.0 0.00 0.00 0.00 47 1037.6
20230208113445 2 202 11.3 0.0 0.00 0.00 0.00 48 1037.7
20230208112945 2 182 9.7 0.0 0.00 0.00 0.00 48 1037.9
20230208112445 2 205 8.0 0.0 0.00 0.00 0.00 49 1038.1
20230208111945 2 190 9.7 0.0 0.00 0.00 0.00 49 1038.1
20230208111445 2 192 8.0 0.0 0.00 0.00 0.00 50 1038.2
20230208110944 1 245 9.7 0.0 0.00 0.00 0.00 52 1038.2
20230208110444 1 237 11.3 0.0 0.00 0.00 0.00 51 1038.3
20230208105944 1 245 9.7 0.0 0.00 0.00 0.00 48 1038.4
20230208105444 1 247 11.3 0.0 0.00 0.00 0.00 49 1038.6
20230208104944 1 252 12.9 0.0 0.00 0.00 0.00 47 1038.6
20230208104444 1 245 11.3 0.0 0.00 0.00 0.00 48 1038.6
20230208103944 1 250 12.9 0.0 0.00 0.00 0.00 49 1038.7
20230208103444 1 240 11.3 0.0 0.00 0.00 0.00 49 1038.7
20230208102943 1 210 11.3 0.0 0.00 0.00 0.00 45 1038.6
20230208102443 1 190 12.9 0.0 0.00 0.00 0.00 47 1038.7
20230208101943 1 190 12.9 0.0 0.00 0.00 0.00 47 1038.8
20230208101443 1 192 11.3 0.0 0.00 0.00 0.00 47 1038.9
20230208100943 2 192 12.9 0.0 0.00 0.00 0.00 48 1039.0
20230208100443 2 212 12.9 0.0 0.00 0.00 0.00 46 1039.1
20230208095943 3 215 8.0 0.0 0.00 0.00 0.00 53 1039.3
20230208095442 4 235 0.0 0.0 0.00 0.00 0.00 50 1039.5
20230208094942 4 262 0.0 0.0 0.00 0.00 0.00 54 1039.5
20230208094442 4 110 0.0 0.0 0.00 0.00 0.00 54 1039.6
20230208093942 3 140 0.0 0.0 0.00 0.00 0.00 58 1039.7
20230208093442 2 40 0.0 0.0 0.00 0.00 0.00 61 1039.8
20230208092942 1 42 3.2 0.0 0.00 0.00 0.00 61 1039.9
20230208092442 1 10 6.4 0.0 0.00 0.00 0.00 61 1039.9
20230208091942 1 32 6.4 0.0 0.00 0.00 0.00 61 1040.0
20230208091441 0 127 0.0 0.0 0.00 0.00 0.00 64 1040.1
20230208090941 0 127 0.0 0.0 0.00 0.00 0.00 64 1040.1
20230208090441 0 27 4.8 0.0 0.00 0.00 0.00 64 1040.2
20230208085941 0 25 8.0 0.0 0.00 0.00 0.00 63 1040.3
20230208085441 0 47 0.0 0.0 0.00 0.00 0.00 66 1040.4
20230208084941 -1 52 0.0 0.0 0.00 0.00 0.00 68 1040.4
20230208084441 -2 67 0.0 0.0 0.00 0.00 0.00 70 1040.3
20230208083941 -2 70 0.0 0.0 0.00 0.00 0.00 69 1040.4
20230208083440 -2 30 0.0 0.0 0.00 0.00 0.00 69 1040.3
20230208082940 -2 40 0.0 0.0 0.00 0.00 0.00 69 1040.5
20230208082440 -3 37 0.0 0.0 0.00 0.00 0.00 72 1040.5
20230208081940 -4 30 0.0 0.0 0.00 0.00 0.00 72 1040.4
20230208081440 -5 20 0.0 0.0 0.00 0.00 0.00 73 1040.5
20230208080940 -5 2 4.8 0.0 0.00 0.00 0.00 75 1040.6
20230208080440 -6 22 4.8 0.0 0.00 0.00 0.00 76 1040.6
20230208075940 -6 27 0.0 0.0 0.00 0.00 0.00 78 1040.7
20230208075440 -7 32 0.0 0.0 0.00 0.00 0.00 79 1040.7
20230208074939 -8 17 0.0 0.0 0.00 0.00 0.00 80 1040.7
20230208074439 -8 42 0.0 0.0 0.00 0.00 0.00 79 1040.8
20230208073939 -8 47 6.4 0.0 0.00 0.00 0.00 79 1040.8
20230208073439 -8 50 6.4 0.0 0.00 0.00 0.00 78 1040.8
20230208072939 -9 0 6.4 0.0 0.00 0.00 0.00 79 1040.7
20230208072439 -9 15 6.4 0.0 0.00 0.00 0.00 79 1040.8
20230208071939 -9 45 6.4 0.0 0.00 0.00 0.00 80 1040.8
20230208071439 -9 32 4.8 0.0 0.00 0.00 0.00 79 1040.8
20230208070938 -9 50 6.4 0.0 0.00 0.00 0.00 79 1040.9
20230208070438 -9 30 6.4 0.0 0.00 0.00 0.00 78 1041.0
20230208065938 -9 15 6.4 0.0 0.00 0.00 0.00 79 1040.9
20230208065438 -10 355 0.0 0.0 0.00 0.00 0.00 81 1040.9
20230208064938 -10 355 0.0 0.0 0.00 0.00 0.00 81 1040.8
20230208064438 -10 22 6.4 0.0 0.00 0.00 0.00 81 1040.9
20230208063938 -10 15 4.8 0.0 0.00 0.00 0.00 81 1040.9
20230208063437 -10 35 4.8 0.0 0.00 0.00 0.00 80 1040.8
20230208062937 -9 25 6.4 0.0 0.00 0.00 0.00 81 1040.8
20230208062437 -9 17 6.4 0.0 0.00 0.00 0.00 81 1040.8
20230208061937 -10 20 6.4 0.0 0.00 0.00 0.00 82 1040.8
20230208061437 -10 32 6.4 0.0 0.00 0.00 0.00 82 1040.9
20230208060937 -10 27 0.0 0.0 0.00 0.00 0.00 81 1040.9
20230208060437 -10 87 0.0 0.0 0.00 0.00 0.00 81 1040.8
20230208055937 -10 12 4.8 0.0 0.00 0.00 0.00 81 1040.9
20230208055437 -10 15 6.4 0.0 0.00 0.00 0.00 81 1040.7
20230208054936 -10 15 6.4 0.0 0.00 0.00 0.00 82 1040.7
20230208054436 -10 5 4.8 0.0 0.00 0.00 0.00 83 1040.6
20230208053936 -10 42 6.4 0.0 0.00 0.00 0.00 83 1040.7
20230208053436 -10 42 6.4 0.0 0.00 0.00 0.00 83 1040.6
20230208052936 -10 25 6.4 0.0 0.00 0.00 0.00 83 1040.5
20230208052436 -10 37 6.4 0.0 0.00 0.00 0.00 82 1040.7
20230208051936 -10 45 6.4 0.0 0.00 0.00 0.00 81 1040.6
20230208051436 -10 25 0.0 0.0 0.00 0.00 0.00 81 1040.4
20230208050935 -10 7 0.0 0.0 0.00 0.00 0.00 81 1040.5
20230208050435 -10 357 4.8 0.0 0.00 0.00 0.00 83 1040.5
20230208045935 -10 17 6.4 0.0 0.00 0.00 0.00 83 1040.5
20230208045435 -10 0 6.4 0.0 0.00 0.00 0.00 83 1040.6
20230208044935 -10 20 6.4 0.0 0.00 0.00 0.00 83 1040.6
20230208044435 -10 27 6.4 0.0 0.00 0.00 0.00 83 1040.7
20230208043935 -10 35 0.0 0.0 0.00 0.00 0.00 82 1040.6
20230208043434 -10 30 0.0 0.0 0.00 0.00 0.00 81 1040.7
20230208042934 -10 7 0.0 0.0 0.00 0.00 0.00 80 1040.7
20230208042434 -10 350 4.8 0.0 0.00 0.00 0.00 80 1040.7
20230208041934 -9 12 4.8 0.0 0.00 0.00 0.00 81 1040.6
20230208041434 -10 357 4.8 0.0 0.00 0.00 0.00 82 1040.7
20230208040934 -10 20 4.8 0.0 0.00 0.00 0.00 82 1040.7
20230208040434 -10 25 4.8 0.0 0.00 0.00 0.00 82 1040.7
20230208035934 -10 27 6.4 0.0 0.00 0.00 0.00 82 1040.7
20230208035433 -10 17 4.8 0.0 0.00 0.00 0.00 82 1040.7
20230208034933 -10 45 0.0 0.0 0.00 0.00 0.00 81 1040.7
20230208034434 -10 25 0.0 0.0 0.00 0.00 0.00 81 1040.7
20230208033933 -9 10 4.8 0.0 0.00 0.00 0.00 80 1040.7
20230208033433 -9 25 6.4 0.0 0.00 0.00 0.00 81 1040.7
20230208032933 -10 27 6.4 0.0 0.00 0.00 0.00 82 1040.7
20230208032433 -10 22 4.8 0.0 0.00 0.00 0.00 82 1040.5
20230208031933 -10 15 4.8 0.0 0.00 0.00 0.00 83 1040.6
20230208031433 -10 20 0.0 0.0 0.00 0.00 0.00 83 1040.6
20230208030932 -10 20 0.0 0.0 0.00 0.00 0.00 83 1040.6
20230208030432 -10 30 0.0 0.0 0.00 0.00 0.00 82 1040.6
20230208025932 -10 27 6.4 0.0 0.00 0.00 0.00 81 1040.7
20230208025432 -10 17 4.8 0.0 0.00 0.00 0.00 82 1040.6
20230208024932 -10 17 4.8 0.0 0.00 0.00 0.00 82 1040.6
20230208024432 -10 15 6.4 0.0 0.00 0.00 0.00 83 1040.7
20230208023932 -10 35 4.8 0.0 0.00 0.00 0.00 83 1040.7
20230208023431 -10 22 4.8 0.0 0.00 0.00 0.00 83 1040.5
20230208022931 -10 10 0.0 0.0 0.00 0.00 0.00 82 1040.5
20230208022431 -10 12 0.0 0.0 0.00 0.00 0.00 83 1040.5
20230208021931 -10 22 0.0 0.0 0.00 0.00 0.00 82 1040.5
20230208021431 -10 2 4.8 0.0 0.00 0.00 0.00 82 1040.5
20230208020931 -10 27 4.8 0.0 0.00 0.00 0.00 82 1040.6
20230208020431 -10 30 4.8 0.0 0.00 0.00 0.00 82 1040.8
20230208015931 -10 30 4.8 0.0 0.00 0.00 0.00 82 1040.9
20230208015430 -10 22 4.8 0.0 0.00 0.00 0.00 82 1040.9
20230208014930 -9 25 4.8 0.0 0.00 0.00 0.00 82 1041.0
20230208014430 -9 20 6.4 0.0 0.00 0.00 0.00 83 1041.0
20230208013930 -10 20 4.8 0.0 0.00 0.00 0.00 84 1041.0
20230208013430 -10 25 4.8 0.0 0.00 0.00 0.00 83 1040.9
20230208012930 -10 32 6.4 0.0 0.00 0.00 0.00 83 1041.2
20230208012430 -10 20 4.8 0.0 0.00 0.00 0.00 83 1041.2
20230208011929 -10 355 6.4 0.0 0.00 0.00 0.00 84 1041.1
20230208011429 -10 15 6.4 0.0 0.00 0.00 0.00 85 1041.2
20230208010929 -10 12 0.0 0.0 0.00 0.00 0.00 85 1041.1
20230208010429 -10 20 0.0 0.0 0.00 0.00 0.00 86 1041.0
20230208005929 -10 25 0.0 0.0 0.00 0.00 0.00 85 1041.1
20230208005429 -10 22 6.4 0.0 0.00 0.00 0.00 85 1041.0
20230208004929 -10 30 0.0 0.0 0.00 0.00 0.00 85 1040.9
20230208004429 -10 25 0.0 0.0 0.00 0.00 0.00 85 1040.9
20230208003928 -10 22 6.4 0.0 0.00 0.00 0.00 85 1041.0
20230208003428 -10 22 6.4 0.0 0.00 0.00 0.00 85 1041.1
20230208002928 -10 35 6.4 0.0 0.00 0.00 0.00 85 1041.0
20230208002428 -10 350 4.8 0.0 0.00 0.00 0.00 86 1040.8
20230208001928 -9 27 4.8 0.0 0.00 0.00 0.00 86 1041.0
20230208001428 -9 27 4.8 0.0 0.00 0.00 0.00 86 1041.0
20230208000928 -10 22 6.4 0.0 0.00 0.00 0.00 87 1041.1
20230208000429 -10 42 6.4 0.0 0.00 0.00 0.00 86 1041.1
20230207235927 -10 57 0.0 0.0 0.00 0.00 0.00 86 1041.0
20230207235427 -9 355 0.0 0.0 0.00 0.00 0.00 87 1041.0
20230207234927 -9 12 4.8 0.0 0.00 0.00 0.00 87 1041.0
20230207234427 -10 20 0.0 0.0 0.00 0.00 0.00 87 1041.0
20230207233927 -10 20 0.0 0.0 0.00 0.00 0.00 87 1041.0
20230207233427 -9 5 6.4 0.0 0.00 0.00 0.00 87 1041.0
20230207232927 -9 15 4.8 0.0 0.00 0.00 0.00 87 1040.9
20230207232426 -9 10 0.0 0.0 0.00 0.00 0.00 88 1040.9
20230207231926 -9 5 6.4 0.0 0.00 0.00 0.00 88 1040.8
20230207231426 -9 5 6.4 0.0 0.00 0.00 0.00 88 1040.7
20230207230926 -9 25 4.8 0.0 0.00 0.00 0.00 88 1040.7
20230207230426 -9 25 4.8 0.0 0.00 0.00 0.00 88 1040.7
20230207225926 -9 35 0.0 0.0 0.00 0.00 0.00 88 1040.6
20230207225426 -9 15 0.0 0.0 0.00 0.00 0.00 88 1040.6
20230207224926 -9 25 4.8 0.0 0.00 0.00 0.00 88 1040.7
20230207224426 -9 35 0.0 0.0 0.00 0.00 0.00 88 1040.6
20230207223925 -9 55 4.8 0.0 0.00 0.00 0.00 87 1040.7
20230207223425 -9 0 4.8 0.0 0.00 0.00 0.00 88 1040.7
20230207222925 -9 5 4.8 0.0 0.00 0.00 0.00 88 1040.7
20230207222425 -9 20 0.0 0.0 0.00 0.00 0.00 87 1040.7
20230207221925 -9 25 3.2 0.0 0.00 0.00 0.00 87 1040.8
20230207221425 -9 342 4.8 0.0 0.00 0.00 0.00 88 1040.7
20230207220925 -9 25 4.8 0.0 0.00 0.00 0.00 88 1040.7
20230207220425 -9 30 4.8 0.0 0.00 0.00 0.00 87 1040.7
20230207215924 -9 35 0.0 0.0 0.00 0.00 0.00 87 1040.7
20230207215424 -9 25 0.0 0.0 0.00 0.00 0.00 87 1040.7
20230207214924 -9 27 0.0 0.0 0.00 0.00 0.00 87 1040.6
20230207214424 -9 340 4.8 0.0 0.00 0.00 0.00 87 1040.6
20230207213924 -8 17 0.0 0.0 0.00 0.00 0.00 87 1040.5
20230207213424 -8 17 0.0 0.0 0.00 0.00 0.00 87 1040.5
20230207212924 -8 17 0.0 0.0 0.00 0.00 0.00 87 1040.5
20230207212424 -8 30 0.0 0.0 0.00 0.00 0.00 87 1040.5
20230207211923 -8 17 0.0 0.0 0.00 0.00 0.00 87 1040.5
20230207211423 -8 20 4.8 0.0 0.00 0.00 0.00 87 1040.6
20230207210923 -8 25 4.8 0.0 0.00 0.00 0.00 87 1040.6
20230207210423 -8 25 4.8 0.0 0.00 0.00 0.00 87 1040.6
20230207205923 -8 15 3.2 0.0 0.00 0.00 0.00 87 1040.6
20230207205423 -8 25 4.8 0.0 0.00 0.00 0.00 86 1040.5
20230207204923 -8 22 4.8 0.0 0.00 0.00 0.00 86 1040.6
20230207204423 -8 30 6.4 0.0 0.00 0.00 0.00 86 1040.6
20230207203922 -8 15 4.8 0.0 0.00 0.00 0.00 86 1040.5
20230207203422 -8 27 4.8 0.0 0.00 0.00 0.00 86 1040.5
20230207202922 -8 20 3.2 0.0 0.00 0.00 0.00 86 1040.7
20230207202422 -8 355 6.4 0.0 0.00 0.00 0.00 86 1040.6
20230207201922 -8 2 4.8 0.0 0.00 0.00 0.00 86 1040.6
20230207201422 -8 7 0.0 0.0 0.00 0.00 0.00 86 1040.6
20230207200922 -8 357 4.8 0.0 0.00 0.00 0.00 86 1040.6
20230207200422 -8 15 4.8 0.0 0.00 0.00 0.00 86 1040.5
20230207195921 -8 20 6.4 0.0 0.00 0.00 0.00 86 1040.5
20230207195421 -8 25 0.0 0.0 0.00 0.00 0.00 86 1040.5
20230207194921 -8 22 0.0 0.0 0.00 0.00 0.00 86 1040.5
20230207194421 -8 45 3.2 0.0 0.00 0.00 0.00 85 1040.5
20230207193921 -8 30 3.2 0.0 0.00 0.00 0.00 85 1040.4
20230207193421 -8 25 0.0 0.0 0.00 0.00 0.00 85 1040.4
20230207192921 -8 15 0.0 0.0 0.00 0.00 0.00 85 1040.5
20230207192421 -7 12 0.0 0.0 0.00 0.00 0.00 85 1040.3
20230207191920 -7 22 4.8 0.0 0.00 0.00 0.00 85 1040.2
20230207191420 -7 17 0.0 0.0 0.00 0.00 0.00 85 1040.2
20230207190920 -7 20 0.0 0.0 0.00 0.00 0.00 84 1040.2
20230207190420 -7 27 0.0 0.0 0.00 0.00 0.00 84 1040.2
20230207185920 -7 15 0.0 0.0 0.00 0.00 0.00 84 1040.1
20230207185420 -7 40 4.8 0.0 0.00 0.00 0.00 83 1040.1
20230207184920 -7 20 0.0 0.0 0.00 0.00 0.00 83 1040.0
20230207184420 -7 15 4.8 0.0 0.00 0.00 0.00 83 1040.0
20230207183919 -7 357 6.4 0.0 0.00 0.00 0.00 83 1040.0
20230207183419 -7 350 6.4 0.0 0.00 0.00 0.00 83 1039.9
20230207182919 -7 20 0.0 0.0 0.00 0.00 0.00 82 1039.8
20230207182419 -7 35 0.0 0.0 0.00 0.00 0.00 82 1039.8
20230207181919 -6 350 0.0 0.0 0.00 0.00 0.00 82 1039.8
20230207181419 -6 22 0.0 0.0 0.00 0.00 0.00 82 1039.8
20230207180919 -6 12 0.0 0.0 0.00 0.00 0.00 81 1039.6
20230207180419 -6 22 0.0 0.0 0.00 0.00 0.00 81 1039.6
20230207175919 -6 15 0.0 0.0 0.00 0.00 0.00 80 1039.6
20230207175418 -6 20 0.0 0.0 0.00 0.00 0.00 80 1039.4
20230207174918 -6 25 0.0 0.0 0.00 0.00 0.00 79 1039.3
20230207174418 -5 357 4.8 0.0 0.00 0.00 0.00 79 1039.2
20230207173918 -5 332 8.0 0.0 0.00 0.00 0.00 78 1039.2
20230207173418 -5 30 6.4 0.0 0.00 0.00 0.00 79 1039.1
20230207172918 -5 45 0.0 0.0 0.00 0.00 0.00 78 1039.1
20230207172418 -5 2 4.8 0.0 0.00 0.00 0.00 78 1039.0
20230207171918 -5 5 0.0 0.0 0.00 0.00 0.00 77 1039.0